World > North America > United States > Texas

Maud, Texas Regional Weather

Lat: 33.33N, Lon: 94.34W
Wx Zone: TXZ097Web Search
Maud Weather Warning NWS WEATHER ALERT FOR THE MAUD, TX AREA - Issued: 320 PM CDT Tue Apr 13 2021 Maud Weather Warning  

Helpful Tip: Abbreviated, 7 Day, 14 Day Forecasts. There is a weather forecast for every taste.

Feedback


°F Click to change Maud hourly weather to Imperial units.Click to change Maud hourly weather to Metric units. °C
Maud Weather Map
UTC Time: 4/14/2021, 05:08
Your Time:

Maud, TX Regional Weather

Expires:202104140600;;521667
ASUS44 KFWD 140503
RWRTX 
NORTH TEXAS HOURLY WEATHER ROUNDUP
NATIONAL WEATHER SERVICE FORT WORTH TX
1200 AM CDT WED APR 14 2021

NOTE: "FAIR" INDICATES FEW OR NO CLOUDS BELOW 12,000 FEET WITH NO
SIGNIFICANT WEATHER AND/OR OBSTRUCTIONS TO VISIBILITY.


TXZ095>097-106>112-122>126-135>138-148>153-164>167-140600-
EAST TEXAS
  
CITY           SKY/WX    TMP DP  RH WIND       PRES   REMARKS
PARIS          CLOUDY    66  60  81 NE8       29.98S                  
SULPHUR SPRNGS CLOUDY    72  58  63 E8        29.97S                  
MOUNT PLEASANT CLOUDY    71  64  78 SE10      29.97S                  
GILMER         FAIR      69  63  80 SE9       29.97S                  
MINEOLA        CLOUDY    72  64  78 SE6       29.94F                  
TYLER          CLOUDY    72  67  84 SE13      29.95S                  
LONGVIEW       CLOUDY    69  63  81 SE14      29.97S                  
MARSHALL       MOCLDY    66  62  87 SE5       30.01F                  
ATHENS         CLOUDY    72  66  83 SE13G20   29.94R                  
PALESTINE      RAIN      68  68 100 SE7       29.96R FOG              
JACKSONVILLE   RAIN      66  65  97 CALM      29.98F                  
HENDERSON      CLOUDY    67  65  92 SE6       29.99S                  
CENTER         MOCLDY    66  61  82 SE6       30.00F                  
NACOGDOCHES    CLOUDY    68  63  84 SE9       30.00S                  
LUFKIN         CLOUDY    69  63  81 SE9       29.97F                  
$$

SUPPLEMENTAL OBSERVATIONS (NWS FORT WORTH AREA)
  
CITY           SKY/WX    TMP DP  RH WIND       PRES   REMARKS
$$

SUPPLEMENTAL OBSERVATIONS (NWS NORMAN AREA)
  
CITY           SKY/WX    TMP DP  RH WIND       PRES   REMARKS
GOODLETT         N/A     51  43  74 NE13      30.14R                  
ODELL            N/A     51  48  90 N9        30.13S                  
CROWELL          N/A     51  49  92 VRB8      30.14R                  
KNOX CITY        N/A     52  47  85 N13       30.11R                  
SEYMOUR          N/A     53  47  79 VRB16     30.09R                  
$$

SUPPLEMENTAL OBSERVATIONS (NWS SAN ANGELO AREA)
  
CITY           SKY/WX    TMP DP  RH WIND       PRES   REMARKS
WEINERT          N/A     51  47  86 N17       30.09S                  
HASKELL          N/A     53  45  74 N14       30.08S                  
THROCKMORTON     N/A     57  45  62 N8        30.07R                  
STAMFORD         N/A     55  45  68 N10       30.08R                  
CLYDE            N/A     51  42  72 N8        30.05F                  
$$

SUPPLEMENTAL OBSERVATIONS (NWS SHREVEPORT AREA)
  
CITY           SKY/WX    TMP DP  RH WIND       PRES   REMARKS
$$

SUPPLEMENTAL OBSERVATIONS ARE A COLLECTION OF AUTOMATED INSTRUMENTS
THAT ARE MAINTAINED BY A VARIETY OF FEDERAL AND STATE AGENCIES. 
CERTAIN ELEMENTS...SUCH AS HUMIDITY VALUES AND SUSTAINED WIND 
SPEEDS...MAY BE APPROXIMATED.

  

SKY/WX - Weather  TMP - Temperature  DP - Dew Point  RH - Relative Humidity
WIND - Wind Direction/Speed PRES - Barometric Pressure VSB - Visibility
WCI - Wind Chill Index E13G22 Wind - East Wind 13 mph/Gusts of 22 mph